www.pogodaiklimat.ru

Погода и климат >> Архив погоды >> Италия >> Генуя


ПОГОДА в Генуе

  • Прогноз погоды в Генуе
  • Монитор погоды в Генуе

АРХИВ ПОГОДЫ в Генуе

Время (UTC), дата Ветер
(напр.,м/с)
 
Видим.   Явления Облачность Т
(С)
Тd
(С)
f
(%)
Тe
(С)
Тes
(С)
Комфортность P
(гПа)
Po
(гПа)
Тmin
(С)
Tmax
(С)
R
(мм)
R24
(мм)
S
(см)
18 10.07 ЮВ 2 25 км ясно +27.6 +20.3 64 +34 +35 очень
душно
1010.6 1010.2 +32.9
21 10.07 С 1 25 км ясно +26.2 +17.5 59 +30 +30 душно 1012.1 1011.7
00 11.07 В 2 25 км ясно +23.2 +17.0 68 +28 +28 душно 1013.0 1012.6
03 11.07 С 3 25 км ясно +23.2 +17.4 70 +29 +29 душно 1012.7 1012.4
06 11.07 С 2 25 км 4/4 1050 м
[Cu Sc]
+24.4 +17.8 67 +29 +31 душно 1013.7 1013.3 +22.8
09 11.07 ЮВ 5 25 км 4/4 1200 м
[Cu Sc]
+26.7 +16.4 53 +30 +35 душно 1014.1 1013.7
12 11.07 Ю 3 25 км 10/9 1200 м
[Cu Sc Cs]
+26.3 +17.1 57 +30 +31 душно 1013.7 1013.3
15 11.07 Ю 2 25 км 10/6 1050 м
[Sc diur, vesp Cs]
+25.9 +17.1 58 +30 +33 душно 1012.7 1012.3
18 11.07 ЮВ 3 30 км 8/8 1050 м
[Cu Sc]
+25.5 +17.5 61 +30 +30 душно 1011.7 1011.3 +26.9
21 11.07 СВ 1 30 км 8/8 1050 м
[Cu Sc]
+25.0 +18.1 66 +29 +29 душно 1012.4 1012.0
00 12.07 СВ 2 30 км 8/8 1050 м
[Cu Sc]
+24.2 +18.2 69 +29 +29 душно 1012.1 1011.7
03 12.07 СВ 2 30 км 8/8 1050 м
[Cu Sc]
+23.2 +17.9 72 +29 +29 душно 1011.5 1011.1
06 12.07 СВ 3 30 км 8/3 900 м
[Cu hum Ac trans]
+25.0 +18.4 67 +30 +31 душно 1012.2 1011.8 +23.0
09 12.07 ЮЗ 3 30 км 3/3 1050 м
[Cu hum]
+28.2 +19.3 59 +34 +42 очень
душно
1011.7 1011.3
12 12.07 Ю 3 30 км 3/3 1050 м
[Cu hum]
+28.7 +21.9 67 +37 +48 очень
душно
1011.4 1011.0
15 12.07 ЮЗ 3 30 км 3/3 1050 м
[Cu hum]
+27.5 +21.7 71 +35 +41 очень
душно
1010.9 1010.5
18 12.07 Ю 2 30 км 1/1 1050 м
[Cu hum]
+25.7 +21.6 78 +33 +33 очень
душно
1010.4 1010.0 +30.0
21 12.07 СВ 1 30 км 3/3 750 м
[Cu hum]
+24.9 +21.0 79 +31 +31 очень
душно
1010.8 1010.4
00 13.07 СВ 3 30 км 4/4 600 м
[Cu hum]
+23.7 +20.1 80 +29 +29 душно 1010.0 1009.6
03 13.07 С 2 30 км ясно +22.8 +19.4 81 +29 +29 очень
душно
1008.9 1008.5
06 13.07 СВ 3 н/о н/о +24.8 +19.1 71 +30 +30 душно 1009.2 1008.8 +22.4
09 13.07 ЮЗ 4 25 км ясно +27.6 +20.9 67 +35 +45 очень
душно
1009.1 1008.7
12 13.07 С 4 35 км 3/3 960 м
[Cu med, cong]
+33.1 +13.5 31 +34 +44 очень
жарко
1008.6 1008.2
15 13.07 ЮЗ 4 28 км 1/1 840 м
[Cu med, cong]
+27.9 +23.0 75 +37 +44 очень
душно
1008.5 1008.1
18 13.07 ЮВ 3 20 км ясно +26.8 +22.5 77 +35 +36 очень
душно
1008.4 1008.0 +33.8
21 13.07 СВ 4 20 км ясно +26.3 +16.1 53 +30 +30 душно 1009.9 1009.5
00 14.07 СВ 3 н/о н/о +26.4 +12.1 41 +28 +28 жарко 1010.7 1010.3
03 14.07 СВ 3 20 км ясно +23.8 +13.4 52 +26 +26 жарко 1010.3 1009.9
06 14.07 С 1 25 км 6/6 1050 м
[Cu Sc]
+25.5 +15.4 54 +29 +30 душно 1010.5 1010.1 +23.2
09 14.07 Ю 2 25 км 8/8 1050 м
[Cu Sc]
+26.9 +18.5 60 +32 +35 очень
душно
1011.1 1010.7
12 14.07 Ю 3 25 км 3/3 1050 м
[Cu Sc]
+27.8 +19.6 61 +34 +45 очень
душно
1010.4 1010.0
15 14.07 ЮЗ 2 25 км 3/3 1050 м
[Cu Sc]
+27.1 +15.4 49 +30 +37 душно 1009.1 1008.7
18 14.07 ЮВ 1 25 км 6/3 1050 м
[Cu Sc]
+26.7 +12.3 41 +28 +29 жарко 1007.8 1007.4 +28.6
21 14.07 С 2 25 км слаб. дождь 10/6 1470 м
[Cu Sc As op]
+24.3 +15.5 58 +27 +27 жарко 1008.9 1008.5
00 15.07 СВ 3 25 км {дождь} 9/6 1470 м
[Cu Sc As op]
+22.8 +15.4 63 +27 +27 душно 1007.9 1007.5
03 15.07 СВ 3 20 км слаб. дождь 10/3 720 м
[Cu Sc As op]
+20.2 +16.7 80 +23 +23 комфорт 1006.8 1006.4
06 15.07 СВ 3 20 км 10/3 720 м
[Cu Sc As op]
+20.8 +16.9 78 +25 +25 комфорт 1006.1 1005.7 +19.5
09 15.07 СВ 3 12 км в посл. час гроза {дождь} 10/3 660 м
[Cu Sc As op]
+18.8 +15.9 83 +20 +22 1008.7 1008.3
12 15.07 СВ 2 9000 м в посл. час гроза {дождь} 10/8 360 м
[Cu Sc As op]
+18.9 +16.4 85 +21 +21 комфорт 1010.0 1009.6
15 15.07 З 1 15 км {дождь} 10/8 900 м
[Cu Sc As op]
+21.1 +16.3 74 +24 +25 комфорт 1009.6 1009.2
18 15.07 С 7 15 км 5/5 900 м
[Cu Sc Ac und]
+22.6 +14.5 60 +26 +26 жарко 1010.0 1009.7 +22.6
21 15.07 С 2 15 км 5/5 900 м
[Cu Sc Ac und]
+21.9 +13.2 58 +25 +25 комфорт 1012.5 1012.1
00 16.07 СВ 4 29 км 1/1 900 м
[Cu Sc]
+21.2 +14.6 66 +24 +24 комфорт 1013.4 1013.0 0.4
03 16.07 В 3 29 км 1/1 900 м
[Cu Sc]
+19.7 +14.1 70 +22 +22 комфорт 1013.1 1012.7
06 16.07 СВ 2 30 км ясно +22.9 +13.7 56 +26 +29 жарко 1013.5 1013.1 +19.6 1
09 16.07 СВ 4 30 км ясно +27.7 +14.1 43 +30 +40 жарко 1014.0 1013.6
12 16.07 ЮЗ 5 40 км 3/3 1350 м
[Cu hum]
+27.8 +17.1 52 +32 +39 душно 1013.8 1013.4 0.2
15 16.07 ЮЗ 5 40 км 3/3 1200 м
[Cu hum]
+27.3 +18.4 58 +32 +35 очень
душно
1013.5 1013.1
18 16.07 З 2 40 км ясно +25.9 +16.3 55 +29 +30 душно 1013.2 1012.8 +28.8 0.2
21 16.07 СВ 3 40 км ясно +22.7 +14.4 59 +26 +26 жарко 1013.8 1013.4
00 17.07 С 3 40 км ясно +21.1 +13.6 62 +24 +24 комфорт 1014.0 1013.6
03 17.07 СВ 3 40 км ясно +20.4 +11.8 58 +23 +23 комфорт 1013.4 1013.0
06 17.07 СВ 3 40 км ясно +22.0 +12.8 56 +25 +27 комфорт 1013.7 1013.3 +20.0
09 17.07 Ю 2 40 км 3/0
[Ci fib]
+25.9 +19.5 68 +31 +44 очень
душно
1014.0 1013.6
12 17.07 Ю 2 40 км 3/3 750 м
[Cu hum]
+25.8 +18.9 66 +31 +44 очень
душно
1013.7 1013.3
15 17.07 Ю 2 40 км ясно +26.1 +17.3 58 +30 +39 душно 1012.8 1012.4

 

Местоположение метеостанции Генуя (Италия): широта 44.42 долгота 8.85 высота над уровнем моря 3 м.

В архиве по умолчанию представлена погода в Генуе за последнюю неделю. Архивные данные за месяц целиком и за предыдущие месяцы, начиная с января 2011 года, Вы можете получить, выбрав интересующий диапазон дат из раскрывающегося списка и нажав кнопку "Ввод!".


*Определитесь, кто Вы:
робот инопланетянин человек

Внимание! Время в таблицах - всемирное. Для получения местного времени необходимо прибавить поправку, которая равна 1 ч.

Смотрите также архив погоды в соседних городах и на ближайших метеорологических станциях:

Погода на Пассо-деи-Джиови (Италия) (16 км)
Погода на Монте Сеттепани (Италия) (56 км)
Погода на Капо Меле (Италия) (75 км)
Погода в Мондови (Италия) (82 км)
Погода в Казале-Монферрато (Италия) (85 км)
Погода в Пьяченце (Италия) (89 км)
Погода на Монте Маланотте (Италия) (105 км)
Погода в Турине Брик Делла Крос (Италия) (112 км)
Погода в Милане (Италия) (117 км)
Погода в Новара (Италия) (123 км)

Пояснения к столбцам:

Ветер - указаны скорость ветра в м/с - средняя за 10 мин, порывы в срок и между сроками (в фигурных скобках) и направление, откуда дует ветер: С - северный, СВ - северо-восточный, В - восточный, ЮВ - юго-восточный, Ю - южный, ЮЗ - юго-западный, З - западный, СЗ - северо-западный.
Видимость - горизонтальная дальность видимости в метрах или километрах. При видимости от 1 до 10 км при отсутствии осадков обычно наблюдается дымка, при ухудшении видимости до 1 км и менее - туман. В сухую погоду видимость может ухудшаться дымом, пылью или мглою.
Явления - указаны атмосферные явления, наблюдавшиеся в срок или в последний час перед сроком; фигурными скобками обозначены явления, наблюдавшиеся между сроками (за 1-3 часа до срока); квадратными скобками обозначены град или гололедные отложения с указанием их диаметра в мм.
Облачность - указаны через наклонную черту общая и нижняя облачность в баллах и высота нижней границы облаков в метрах; квадратными скобками обозначены формы облаков: Ci - перистые, Cs - перисто-слоистые, Cc - перисто-кучевые, Ac - высококучевые, As - высокослоистые, Sc - слоисто-кучевые, Ns - слоисто-дождевые, Cu - кучевые, Cb - кучево-дождевые. Подробнее классификацию облаков см. в Атласе облаков (PDF).
T - Температура воздуха - температура, измеренная на высоте 2 м над землей.
Td - Температура точки росы - температура, при понижении до которой содержащийся в воздухе водяной пар достигнет насыщения.
f - Относительная влажность воздуха - влажноcть воздуха, измеренная на высоте 2 м над землей.
Te - Эффективная температура - температура, которую ощущает одетый по сезону человек в тени. Характеристика душности погоды. При расчете учитывается влияние влажности воздуха и скорости ветра на теплоощущения человека.
Tes - Эффективная температура на солнце - температура, которую ощущает человек, с поправкой на солнечный нагрев. Характеристика знойности погоды. Зависит от высоты солнца над горизонтом, облачности и скорости ветра. Ночью, в пасмурную погоду, а также при ветре 12 м/с и более поправка равна нулю.
P - Атмосферное давление - приведенное к уровню моря атмосферное давление.
Po - Атмосферное давление - измеренное на уровне метеостанции атмосферное давление.
Tmin - Минимальная температура - минимум температуры воздуха на высоте 2 м над землей.
Tmax - Максимальная температура - максимум температуры воздуха на высоте 2 м над землей.
R - Количество осадков - Количество выпавших осадков за период времени, мм. При наведении курсора мыши на число - период времени, за который выпало указанное количество осадков.
R24 - Количество осадков - Количество выпавших осадков за 24 часа, мм.
S - Снежный покров - Высота снежного покрова, см. При наведении курсора мыши на число - состояние снежного покрова и степень покрытия местности в баллах.